EJU691Q LFKF-LFLL

Flight info

Callsign EJU691Q
Flight time N/A
Altitude 36000
Route LONSU M622 PIGOS DCT BODRU DCT KOTIT/N0381F180 Y42 LASUR Z42 PINED
Aircraft A319/M-SDE2E3FGIJ1RWXYZ/LB1

Departure

Time 2026-04-30 14:33
Airport Figari Sud-Corse Airport (LFKF)

Arrival

Time N/A
Airport Lyon Saint-Exupéry Airport (LFLL)
Time Latitude Longitude Altitude Speed Heading
2026-04-30 14:12 41.49962 9.09798 61 ft 0 kts 138°
2026-04-30 14:26 41.49987 9.09767 57 ft 4 kts 133°
2026-04-30 14:26 41.50001 9.09740 57 ft 4 kts 97°
2026-04-30 14:26 41.50000 9.09723 55 ft 0 kts 47°
2026-04-30 14:28 41.50001 9.09725 55 ft 1 kts 47°
2026-04-30 14:28 41.50013 9.09741 59 ft 4 kts 47°
2026-04-30 14:28 41.50036 9.09775 55 ft 6 kts 47°
2026-04-30 14:28 41.50078 9.09813 60 ft 9 kts
2026-04-30 14:29 41.50185 9.09704 57 ft 12 kts 317°
2026-04-30 14:29 41.50142 9.09574 61 ft 11 kts 227°
2026-04-30 14:30 41.49901 9.09222 57 ft 21 kts 227°
2026-04-30 14:31 41.49665 9.08878 45 ft 28 kts 227°
2026-04-30 14:31 41.49458 9.08658 40 ft 8 kts 204°
2026-04-30 14:31 41.49475 9.08615 39 ft 6 kts 340°
2026-04-30 14:32 41.49545 9.08703 42 ft 23 kts 47°
2026-04-30 14:32 41.49831 9.09120 55 ft 95 kts 47°
2026-04-30 14:32 41.50414 9.09967 109 ft 146 kts 51°
2026-04-30 14:33 41.51087 9.10966 743 ft 144 kts 53°
2026-04-30 14:33 41.52490 9.13026 1804 ft 168 kts 49°
2026-04-30 14:33 41.53333 9.14260 2179 ft 192 kts 49°
2026-04-30 14:34 41.54294 9.15663 2614 ft 217 kts 49°
2026-04-30 14:34 41.55360 9.17219 3270 ft 234 kts 48°
2026-04-30 14:34 41.56482 9.18857 4150 ft 243 kts 48°
2026-04-30 14:34 41.57644 9.20549 5043 ft 249 kts 47°
2026-04-30 14:35 41.59629 9.23425 6526 ft 260 kts 47°
2026-04-30 14:35 41.61308 9.25862 7562 ft 271 kts 46°
2026-04-30 14:35 41.62596 9.27741 8395 ft 277 kts 44°
2026-04-30 14:36 41.64071 9.29412 9189 ft 281 kts 26°
2026-04-30 14:36 41.65927 9.30128 10029 ft 278 kts 358°
2026-04-30 14:36 41.67856 9.29746 10541 ft 290 kts 335°
2026-04-30 14:36 41.69553 9.28205 11002 ft 302 kts 317°
2026-04-30 14:37 41.71122 9.26336 11623 ft 310 kts 318°
2026-04-30 14:37 41.72787 9.24385 12375 ft 316 kts 317°
2026-04-30 14:37 41.74301 9.22241 13274 ft 318 kts 309°
2026-04-30 14:37 41.75705 9.19985 14062 ft 321 kts 309°
2026-04-30 14:38 41.77134 9.17676 14785 ft 324 kts 309°
2026-04-30 14:38 41.78578 9.15334 15429 ft 329 kts 309°
2026-04-30 14:38 41.80045 9.12950 16073 ft 333 kts 309°
2026-04-30 14:38 41.81524 9.10543 16762 ft 337 kts 309°
2026-04-30 14:39 41.83020 9.08108 17445 ft 340 kts 309°
2026-04-30 14:39 41.84533 9.05647 18131 ft 344 kts 309°
2026-04-30 14:39 41.86062 9.03159 18762 ft 347 kts 309°
2026-04-30 14:40 41.89153 8.98118 19942 ft 352 kts 308°
2026-04-30 14:40 41.90713 8.95572 20556 ft 354 kts 308°
2026-04-30 14:40 41.92286 8.93006 21193 ft 356 kts 308°
2026-04-30 14:40 41.93867 8.90427 21815 ft 359 kts 308°
2026-04-30 14:41 41.95437 8.87864 22401 ft 360 kts 308°
2026-04-30 14:41 41.97034 8.85251 23001 ft 363 kts 307°
2026-04-30 14:41 41.98646 8.82610 23606 ft 366 kts 307°
2026-04-30 14:41 42.00261 8.79958 24072 ft 367 kts 307°
2026-04-30 14:42 42.01889 8.77281 24515 ft 370 kts 307°
2026-04-30 14:42 42.03523 8.74592 24991 ft 372 kts 307°
2026-04-30 14:42 42.05163 8.71894 25468 ft 374 kts 307°
2026-04-30 14:42 42.06817 8.69172 25858 ft 377 kts 306°
2026-04-30 14:43 42.08478 8.66429 26289 ft 380 kts 307°
2026-04-30 14:43 42.10159 8.63653 26691 ft 383 kts 307°
2026-04-30 14:43 42.11847 8.60868 27108 ft 385 kts 307°
2026-04-30 14:43 42.13546 8.58067 27526 ft 387 kts 306°
2026-04-30 14:44 42.15255 8.55248 27949 ft 389 kts 306°
2026-04-30 14:44 42.16970 8.52410 28365 ft 391 kts 306°
2026-04-30 14:44 42.18691 8.49553 28789 ft 394 kts 306°
2026-04-30 14:44 42.20427 8.46734 29194 ft 397 kts 309°
2026-04-30 14:45 42.22483 8.44203 29589 ft 404 kts 319°
2026-04-30 14:45 42.24882 8.42161 29981 ft 410 kts 327°
2026-04-30 14:45 42.27389 8.40304 30333 ft 413 kts 326°
2026-04-30 14:45 42.29920 8.38426 30667 ft 414 kts 326°
2026-04-30 14:46 42.32450 8.36546 31026 ft 415 kts 326°
2026-04-30 14:46 42.34981 8.34657 31365 ft 416 kts 326°
2026-04-30 14:46 42.37528 8.32747 31651 ft 419 kts 326°
2026-04-30 14:46 42.39220 8.31474 31863 ft 420 kts 326°
2026-04-30 14:47 42.42594 8.28934 32462 ft 417 kts 326°
2026-04-30 14:47 42.45127 8.27029 32937 ft 415 kts 326°
2026-04-30 14:47 42.47645 8.25135 33416 ft 413 kts 326°
2026-04-30 14:47 42.50152 8.23246 33907 ft 411 kts 326°
2026-04-30 14:48 42.52643 8.21370 34349 ft 408 kts 326°
2026-04-30 14:48 42.55127 8.19498 34726 ft 407 kts 326°
2026-04-30 14:48 42.57605 8.17628 35086 ft 407 kts 326°
2026-04-30 14:48 42.60075 8.15763 35408 ft 406 kts 326°
2026-04-30 14:49 42.62548 8.13896 35716 ft 406 kts 326°
2026-04-30 14:49 42.65015 8.12033 36018 ft 406 kts 326°
2026-04-30 14:49 42.69923 8.08316 36131 ft 400 kts 326°
2026-04-30 14:50 42.77178 8.02793 36144 ft 399 kts 327°
2026-04-30 14:51 42.84433 7.97287 36149 ft 400 kts 327°
2026-04-30 14:52 42.90925 7.92356 36148 ft 401 kts 327°
2026-04-30 14:52 42.98238 7.86795 36156 ft 402 kts 327°
2026-04-30 14:53 43.05562 7.81207 36142 ft 402 kts 327°
2026-04-30 14:54 43.15333 7.73685 36149 ft 403 kts 327°
2026-04-30 14:55 43.22656 7.67997 36152 ft 404 kts 327°
2026-04-30 14:56 43.32455 7.60382 36140 ft 405 kts 327°
2026-04-30 14:57 43.39821 7.54657 36148 ft 406 kts 328°
2026-04-30 14:58 43.49677 7.46971 36139 ft 408 kts 328°
2026-04-30 14:58 43.57047 7.41197 36144 ft 408 kts 328°
2026-04-30 15:00 43.67463 7.28372 36162 ft 404 kts 309°
2026-04-30 15:01 43.74639 7.16383 36166 ft 404 kts 309°
2026-04-30 15:01 43.79980 7.07409 36162 ft 404 kts 308°
2026-04-30 15:02 43.83561 7.01388 36175 ft 404 kts 308°
2026-04-30 15:03 43.92465 6.86346 36183 ft 404 kts 308°
2026-04-30 15:04 44.01358 6.71226 36190 ft 405 kts 308°
2026-04-30 15:06 44.10231 6.56050 36182 ft 405 kts 308°
2026-04-30 15:06 44.13797 6.49944 35484 ft 410 kts 308°
2026-04-30 15:07 44.17356 6.43836 34512 ft 405 kts 308°